﻿_id,日時,平均風速(m/s),平均風向,最大瞬間風速(m/s),最大風速時風向,気温(℃),湿度(%),10分間移動積算雨量(mm),1時間移動積算雨量(mm),日雨量(mm),累計雨量(mm)
1,2022-04-25T00:00:00,0.3,東,0.6,南東,16.5,96.6,0,0,0.5,0.5
2,2022-04-25T00:01:00,0.2,静穏,0.6,南東,16.5,96.6,0,0,0,0.5
3,2022-04-25T00:02:00,0.2,静穏,0.6,南東,16.5,96.5,0,0,0,0.5
4,2022-04-25T00:03:00,0.2,静穏,0.6,南東,16.7,96.7,0,0,0,0.5
5,2022-04-25T00:04:00,0.3,南東,0.7,南南東,16.9,97.1,0,0,0,0.5
6,2022-04-25T00:05:00,0.3,南東,0.8,南東,16.7,96.6,0,0,0,0.5
7,2022-04-25T00:06:00,0.3,南東,0.9,南東,16.6,96.4,0,0,0,0.5
8,2022-04-25T00:07:00,0.3,南東,0.9,南東,16.5,96.4,0,0,0,0.5
9,2022-04-25T00:08:00,0.4,南東,0.9,南東,16.6,96.5,0,0,0,0.5
10,2022-04-25T00:09:00,0.4,南南東,0.9,南東,16.5,96.4,0,0,0,0.5
11,2022-04-25T00:10:00,0.4,南南東,0.9,南東,16.5,96.4,0,0,0,0.5
12,2022-04-25T00:11:00,0.5,南南東,1.1,南,16.5,96.4,0,0,0,0.5
13,2022-04-25T00:12:00,0.5,南南東,1.1,南,16.5,96.6,0,0,0,0.5
14,2022-04-25T00:13:00,0.5,南南東,1.1,南,16.5,96.6,0,0,0,0.5
15,2022-04-25T00:14:00,0.5,南南東,1.1,南,16.5,96.5,0,0,0,0.5
16,2022-04-25T00:15:00,0.4,南南東,1.1,南,16.5,96.4,0,0,0,0.5
17,2022-04-25T00:16:00,0.4,南南東,1.1,南,16.5,96.5,0,0,0,0.5
18,2022-04-25T00:17:00,0.3,南南東,1.1,南,16.5,96.5,0,0,0,0.5
19,2022-04-25T00:18:00,0.3,南南東,1.1,南,16.5,96.5,0,0,0,0.5
20,2022-04-25T00:19:00,0.3,南南東,1.1,南,16.5,96.6,0,0,0,0.5
21,2022-04-25T00:20:00,0.2,静穏,1.1,南,16.6,96.7,0,0,0,0.5
22,2022-04-25T00:21:00,0.2,静穏,0.9,南,16.5,96.5,0,0,0,0.5
23,2022-04-25T00:22:00,0.2,静穏,0.6,北東,16.4,96.4,0,0,0,0.5
24,2022-04-25T00:23:00,0.2,静穏,0.6,北東,16.4,96.4,0,0,0,0.5
25,2022-04-25T00:24:00,0.2,静穏,0.6,北東,16.3,96.4,0,0,0,0.5
26,2022-04-25T00:25:00,0.3,東北東,0.6,北東,16.3,96.4,0,0,0,0.5
27,2022-04-25T00:26:00,0.3,東北東,0.6,北東,16.3,96.5,0,0,0,0.5
28,2022-04-25T00:27:00,0.3,北東,0.6,北東,16.5,96.7,0,0,0,0.5
29,2022-04-25T00:28:00,0.3,北東,0.6,北東,16.5,96.7,0,0,0,0.5
30,2022-04-25T00:29:00,0.4,北東,0.6,北東,16.4,96.5,0,0,0,0.5
31,2022-04-25T00:30:00,0.4,東北東,0.6,北東,16.4,96.5,0,0,0,0.5
32,2022-04-25T00:31:00,0.4,東北東,0.6,北東,16.4,96.5,0,0,0,0.5
33,2022-04-25T00:32:00,0.4,東北東,0.8,東北東,16.4,96.6,0,0,0,0.5
34,2022-04-25T00:33:00,0.4,東北東,0.8,東北東,16.4,96.6,0,0,0,0.5
35,2022-04-25T00:34:00,0.4,東北東,0.8,東北東,16.4,96.7,0,0,0,0.5
36,2022-04-25T00:35:00,0.4,東,1.1,西,16.4,96.7,0,0,0,0.5
37,2022-04-25T00:36:00,0.5,東,1.3,西,16.3,96.6,0,0,0,0.5
38,2022-04-25T00:37:00,0.6,東北東,1.3,西,16.3,96.5,0,0,0,0.5
39,2022-04-25T00:38:00,0.6,北東,1.3,西,16.3,96.6,0,0,0,0.5
40,2022-04-25T00:39:00,0.7,北北東,1.3,西,16.3,96.6,0,0,0,0.5
41,2022-04-25T00:40:00,0.8,北,1.5,北北東,16.4,96.6,0,0,0,0.5
42,2022-04-25T00:41:00,0.8,北,1.5,北北東,16.4,96.6,0,0,0,0.5
43,2022-04-25T00:42:00,0.9,北北西,1.5,北北東,16.4,96.7,0,0,0,0.5
44,2022-04-25T00:43:00,0.9,北北西,1.5,北北東,16.3,96.6,0,0,0,0.5
45,2022-04-25T00:44:00,1,北,1.5,北北東,16.3,96.5,0,0,0,0.5
46,2022-04-25T00:45:00,1,北,1.5,北北東,16.3,96.6,0,0,0,0.5
47,2022-04-25T00:46:00,0.9,北北東,1.5,北北東,16.3,96.6,0,0,0,0.5
48,2022-04-25T00:47:00,0.8,北北東,1.5,北北東,16.3,96.6,0,0,0,0.5
49,2022-04-25T00:48:00,0.8,北東,1.5,北北東,16.4,96.6,0,0,0,0.5
50,2022-04-25T00:49:00,0.8,北東,1.5,北北東,16.5,96.7,0,0,0,0.5
51,2022-04-25T00:50:00,0.7,北東,1.5,北北東,16.6,97,0,0,0,0.5
52,2022-04-25T00:51:00,0.7,北東,1.5,北北東,16.4,96.6,0,0,0,0.5
53,2022-04-25T00:52:00,0.7,北東,1.3,北東,16.4,96.5,0,0,0,0.5
54,2022-04-25T00:53:00,0.6,北東,1.2,北東,16.4,96.6,0,0,0,0.5
55,2022-04-25T00:54:00,0.6,北東,1.2,北東,16.4,96.6,0,0,0,0.5
56,2022-04-25T00:55:00,0.6,北東,1.2,北東,16.4,96.6,0,0,0,0.5
57,2022-04-25T00:56:00,0.6,北東,1.2,北東,16.3,96.6,0,0,0,0.5
58,2022-04-25T00:57:00,0.6,北東,1.2,北東,16.4,96.7,0,0,0,0.5
59,2022-04-25T00:58:00,0.6,北東,1.2,北東,16.4,96.7,0,0,0,0.5
60,2022-04-25T00:59:00,0.7,東北東,1.2,北東,16.4,96.7,0,0,0,0.5
61,2022-04-25T01:00:00,0.7,東北東,1.2,北東,16.3,96.6,0,0,0,0.5
62,2022-04-25T01:01:00,0.7,東北東,1.2,北東,16.4,96.6,0,0,0,0.5
63,2022-04-25T01:02:00,0.7,東,1.1,南東,16.4,96.7,0,0,0,0.5
64,2022-04-25T01:03:00,0.7,東,1.1,南東,16.4,96.6,0,0,0,0.5
65,2022-04-25T01:04:00,0.7,東,1.1,南東,16.4,96.7,0,0,0,0.5
66,2022-04-25T01:05:00,0.7,東南東,1.1,南東,16.4,96.7,0,0,0,0.5
67,2022-04-25T01:06:00,0.6,東南東,1.1,南東,16.4,96.7,0,0,0,0.5
68,2022-04-25T01:07:00,0.6,東南東,1.1,南東,16.4,96.7,0,0,0,0.5
69,2022-04-25T01:08:00,0.6,南東,1.1,南東,16.3,96.5,0,0,0,0.5
70,2022-04-25T01:09:00,0.6,南東,1.1,南東,16.3,96.5,0,0,0,0.5
71,2022-04-25T01:10:00,0.6,東南東,1.1,南東,16.3,96.6,0,0,0,0.5
72,2022-04-25T01:11:00,0.5,北北西,1.1,東,16.3,96.7,0,0,0,0.5
73,2022-04-25T01:12:00,0.5,北西,1.1,東,16.3,96.7,0,0,0,0.5
74,2022-04-25T01:13:00,0.4,北西,0.9,西北西,16.3,96.7,0,0,0,0.5
75,2022-04-25T01:14:00,0.4,北西,0.9,西北西,16.4,96.8,0,0,0,0.5
76,2022-04-25T01:15:00,0.4,北西,0.9,西北西,16.4,96.8,0,0,0,0.5
77,2022-04-25T01:16:00,0.4,北北西,0.9,西北西,16.3,96.7,0,0,0,0.5
78,2022-04-25T01:17:00,0.4,北北西,0.9,西北西,16.3,96.7,0,0,0,0.5
79,2022-04-25T01:18:00,0.4,北,0.9,西北西,16.3,96.7,0,0,0,0.5
80,2022-04-25T01:19:00,0.4,北北東,0.7,北東,16.3,96.7,0,0,0,0.5
81,2022-04-25T01:20:00,0.4,北北東,0.8,南東,16.3,96.7,0,0,0,0.5
82,2022-04-25T01:21:00,0.4,北東,0.8,南東,16.3,96.7,0,0,0,0.5
83,2022-04-25T01:22:00,0.4,東北東,0.8,南東,16.4,96.8,0,0,0,0.5
84,2022-04-25T01:23:00,0.4,東,0.8,南東,16.5,96.9,0,0,0,0.5
85,2022-04-25T01:24:00,0.4,東,0.8,南東,16.4,96.8,0,0,0,0.5
86,2022-04-25T01:25:00,0.3,東,0.8,南東,16.4,96.7,0,0,0,0.5
87,2022-04-25T01:26:00,0.3,東,0.8,南東,16.4,96.8,0,0,0,0.5
88,2022-04-25T01:27:00,0.3,東南東,0.8,南東,16.3,96.7,0,0,0,0.5
89,2022-04-25T01:28:00,0.3,南東,0.8,南東,16.3,96.6,0,0,0,0.5
90,2022-04-25T01:29:00,0.3,南南東,0.8,南東,16.2,96.6,0,0,0,0.5
91,2022-04-25T01:30:00,0.3,南南東,0.9,南西,16.2,96.6,0,0,0,0.5
92,2022-04-25T01:31:00,0.3,南,1,南西,16.3,96.7,0,0,0,0.5
93,2022-04-25T01:32:00,0.4,南南西,1,南西,16.3,96.7,0,0,0,0.5
94,2022-04-25T01:33:00,0.4,南西,1,南西,16.3,96.8,0,0,0,0.5
95,2022-04-25T01:34:00,0.5,南西,1.1,西,16.3,96.7,0,0,0,0.5
96,2022-04-25T01:35:00,0.6,西南西,1.1,西,16.3,96.7,0,0,0,0.5
97,2022-04-25T01:36:00,0.6,西南西,1.1,西,16.3,96.8,0,0,0,0.5
98,2022-04-25T01:37:00,0.6,西南西,1.1,西,16.3,96.8,0,0,0,0.5
99,2022-04-25T01:38:00,0.6,西南西,1.1,西,16.4,96.9,0,0,0,0.5
100,2022-04-25T01:39:00,0.5,西,1.1,西,16.5,97,0,0,0,0.5
101,2022-04-25T01:40:00,0.5,西北西,1.1,西,16.4,96.8,0,0,0,0.5
102,2022-04-25T01:41:00,0.4,西北西,1.1,西,16.4,96.8,0,0,0,0.5
103,2022-04-25T01:42:00,0.4,西北西,1.1,西,16.4,96.7,0,0,0,0.5
104,2022-04-25T01:43:00,0.3,西北西,1.1,西,16.3,96.7,0,0,0,0.5
105,2022-04-25T01:44:00,0.3,西北西,1.1,北西,16.3,96.6,0,0,0,0.5
106,2022-04-25T01:45:00,0.2,静穏,0.6,西南西,16.3,96.7,0,0,0,0.5
107,2022-04-25T01:46:00,0.2,静穏,0.6,西南西,16.7,97.2,0,0,0,0.5
108,2022-04-25T01:47:00,0.2,静穏,0.6,西南西,16.5,96.9,0,0,0,0.5
109,2022-04-25T01:48:00,0.2,静穏,0.6,西南西,16.4,96.6,0,0,0,0.5
110,2022-04-25T01:49:00,0.2,静穏,0.6,西南西,16.4,96.6,0,0,0,0.5
111,2022-04-25T01:50:00,0.2,静穏,0.6,西南西,16.3,96.6,0,0,0,0.5
112,2022-04-25T01:51:00,0.2,静穏,0.7,東南東,16.3,96.7,0,0,0,0.5
113,2022-04-25T01:52:00,0.3,東北東,0.8,東南東,16.3,96.6,0,0,0,0.5
114,2022-04-25T01:53:00,0.3,東北東,0.8,東南東,16.2,96.5,0,0,0,0.5
115,2022-04-25T01:54:00,0.3,東北東,0.8,東南東,16.4,96.8,0,0,0,0.5
116,2022-04-25T01:55:00,0.3,東北東,0.8,東南東,16.3,96.7,0,0,0,0.5
117,2022-04-25T01:56:00,0.3,東,0.8,東南東,16.2,96.6,0,0,0,0.5
118,2022-04-25T01:57:00,0.4,東,0.8,東南東,16.2,96.6,0,0,0,0.5
119,2022-04-25T01:58:00,0.5,東,0.9,東,16.2,96.6,0,0,0,0.5
120,2022-04-25T01:59:00,0.5,東南東,0.9,東,16.2,96.6,0,0,0,0.5
121,2022-04-25T02:00:00,0.5,東南東,0.9,東,16.2,96.7,0,0,0,0.5
122,2022-04-25T02:01:00,0.5,東南東,0.9,東,16.3,96.8,0,0,0,0.5
123,2022-04-25T02:02:00,0.4,東南東,0.9,東,16.5,97,0,0,0,0.5
124,2022-04-25T02:03:00,0.4,東南東,0.9,東,16.4,96.9,0,0,0,0.5
125,2022-04-25T02:04:00,0.4,東南東,0.9,東,16.4,96.8,0,0,0,0.5
126,2022-04-25T02:05:00,0.4,東南東,1.2,東北東,16.4,96.8,0,0,0,0.5
127,2022-04-25T02:06:00,0.4,東,1.2,東北東,16.3,96.7,0,0,0,0.5
128,2022-04-25T02:07:00,0.4,東,1.2,東北東,16.3,96.6,0,0,0,0.5
129,2022-04-25T02:08:00,0.4,東南東,1.2,東北東,16.3,96.6,0,0,0,0.5
130,2022-04-25T02:09:00,0.4,東南東,1.2,東北東,16.3,96.7,0,0,0,0.5
131,2022-04-25T02:10:00,0.4,東南東,1.3,南南東,16.5,97,0,0,0,0.5
132,2022-04-25T02:11:00,0.5,東南東,1.3,南南東,16.4,96.8,0,0,0,0.5
133,2022-04-25T02:12:00,0.5,南東,1.3,南南東,16.3,96.6,0,0,0,0.5
134,2022-04-25T02:13:00,0.5,東南東,1.3,南南東,16.3,96.6,0,0,0,0.5
135,2022-04-25T02:14:00,0.5,東南東,1.3,南南東,16.3,96.6,0,0,0,0.5
136,2022-04-25T02:15:00,0.5,東南東,1.3,南南東,16.3,96.6,0,0,0,0.5
137,2022-04-25T02:16:00,0.5,東南東,1.3,南南東,16.3,96.7,0,0,0,0.5
138,2022-04-25T02:17:00,0.5,東南東,1.3,南南東,16.2,96.7,0,0,0,0.5
139,2022-04-25T02:18:00,0.4,東,1.3,南南東,16.3,96.8,0,0,0,0.5
140,2022-04-25T02:19:00,0.4,東,1.3,南南東,16.2,96.6,0,0,0,0.5
141,2022-04-25T02:20:00,0.5,東,0.9,南東,16.2,96.6,0,0,0,0.5
142,2022-04-25T02:21:00,0.5,東,0.9,南東,16.1,96.5,0,0,0,0.5
143,2022-04-25T02:22:00,0.5,東,1,東南東,16.1,96.6,0,0,0,0.5
144,2022-04-25T02:23:00,0.5,東,1,東南東,16.1,96.6,0,0,0,0.5
145,2022-04-25T02:24:00,0.5,東南東,1,東南東,16.1,96.7,0,0,0,0.5
146,2022-04-25T02:25:00,0.5,東南東,1,東南東,16.2,96.8,0,0,0,0.5
147,2022-04-25T02:26:00,0.5,東南東,1,東南東,16.2,96.8,0,0,0,0.5
148,2022-04-25T02:27:00,0.5,南東,1,東南東,16.2,96.7,0,0,0,0.5
149,2022-04-25T02:28:00,0.5,南東,1,東南東,16.1,96.7,0,0,0,0.5
150,2022-04-25T02:29:00,0.5,南南東,1,東南東,16.1,96.6,0,0,0,0.5
151,2022-04-25T02:30:00,0.4,南南東,1,東南東,16.1,96.6,0,0,0,0.5
152,2022-04-25T02:31:00,0.4,南,1,東南東,16.1,96.7,0,0,0,0.5
153,2022-04-25T02:32:00,0.3,南南東,0.7,南南東,16.1,96.7,0,0,0,0.5
154,2022-04-25T02:33:00,0.3,南東,0.7,南南東,16.2,96.9,0,0,0,0.5
155,2022-04-25T02:34:00,0.3,東北東,0.5,西南西,16.1,96.8,0,0,0,0.5
156,2022-04-25T02:35:00,0.2,静穏,0.5,西南西,16.1,96.7,0,0,0,0.5
157,2022-04-25T02:36:00,0.2,静穏,0.5,西南西,16.1,96.8,0,0,0,0.5
158,2022-04-25T02:37:00,0.2,静穏,0.6,南,16.2,96.8,0,0,0,0.5
159,2022-04-25T02:38:00,0.2,静穏,0.7,南南西,16,96.7,0,0,0,0.5
160,2022-04-25T02:39:00,0.2,静穏,0.7,南南西,16,96.6,0,0,0,0.5
161,2022-04-25T02:40:00,0.3,東北東,0.7,南南西,16,96.7,0,0,0,0.5
162,2022-04-25T02:41:00,0.3,東南東,0.7,南南西,16.1,96.9,0,0,0,0.5
163,2022-04-25T02:42:00,0.3,南東,0.7,南南西,16.1,96.9,0,0,0,0.5
164,2022-04-25T02:43:00,0.3,南,0.7,南南西,16.1,96.9,0,0,0,0.5
165,2022-04-25T02:44:00,0.2,静穏,0.7,南南西,16.2,96.9,0,0,0,0.5
166,2022-04-25T02:45:00,0.2,静穏,0.7,南南西,16.2,96.9,0,0,0,0.5
167,2022-04-25T02:46:00,0.2,静穏,0.7,南南西,16.1,96.8,0,0,0,0.5
168,2022-04-25T02:47:00,0.3,南南西,0.7,南南西,16.1,96.8,0,0,0,0.5
169,2022-04-25T02:48:00,0.2,静穏,0.6,南,16.3,97,0,0,0,0.5
170,2022-04-25T02:49:00,0.2,静穏,0.6,南,16.3,97.1,0,0,0,0.5
171,2022-04-25T02:50:00,0.1,静穏,0.5,南西,16.2,96.7,0,0,0,0.5
172,2022-04-25T02:51:00,0.1,静穏,0.3,南南西,16.1,96.7,0,0,0,0.5
173,2022-04-25T02:52:00,0.1,静穏,0.3,南南西,16,96.6,0,0,0,0.5
174,2022-04-25T02:53:00,0.1,静穏,0.4,南東,16,96.6,0,0,0,0.5
175,2022-04-25T02:54:00,0.2,静穏,0.4,南東,16,96.7,0,0,0,0.5
176,2022-04-25T02:55:00,0.2,静穏,0.4,南東,16,96.7,0,0,0,0.5
177,2022-04-25T02:56:00,0.2,静穏,0.4,南東,16.1,96.8,0,0,0,0.5
178,2022-04-25T02:57:00,0.2,静穏,0.4,南東,16.1,96.9,0,0,0,0.5
179,2022-04-25T02:58:00,0.2,静穏,0.4,南東,16.1,96.8,0,0,0,0.5
180,2022-04-25T02:59:00,0.2,静穏,0.4,南東,16,96.8,0,0,0,0.5
181,2022-04-25T03:00:00,0.2,静穏,0.4,南東,16,96.8,0,0,0,0.5
182,2022-04-25T03:01:00,0.2,静穏,0.4,南東,16,96.8,0,0,0,0.5
183,2022-04-25T03:02:00,0.2,静穏,0.4,南東,16,96.8,0,0,0,0.5
184,2022-04-25T03:03:00,0.1,静穏,0.4,南,16,96.8,0,0,0,0.5
185,2022-04-25T03:04:00,0.1,静穏,0.4,南,16.1,96.9,0,0,0,0.5
186,2022-04-25T03:05:00,0.1,静穏,0.4,南,16.2,97,0,0,0,0.5
187,2022-04-25T03:06:00,0.1,静穏,0.4,南,16.1,96.8,0,0,0,0.5
188,2022-04-25T03:07:00,0.1,静穏,0.4,南東,16,96.7,0,0,0,0.5
189,2022-04-25T03:08:00,0.1,静穏,0.4,南東,16,96.6,0,0,0,0.5
190,2022-04-25T03:09:00,0.1,静穏,0.4,南東,15.9,96.7,0,0,0,0.5
191,2022-04-25T03:10:00,0.1,静穏,0.4,南東,15.9,96.7,0,0,0,0.5
192,2022-04-25T03:11:00,0.2,静穏,0.4,南東,15.9,96.7,0,0,0,0.5
193,2022-04-25T03:12:00,0.2,静穏,0.5,北東,16.1,97,0,0,0,0.5
194,2022-04-25T03:13:00,0.2,静穏,0.5,北東,16.1,97.1,0,0,0,0.5
195,2022-04-25T03:14:00,0.3,東北東,0.5,北東,16,96.7,0,0,0,0.5
196,2022-04-25T03:15:00,0.3,東,0.5,北東,16,96.7,0,0,0,0.5
197,2022-04-25T03:16:00,0.2,静穏,0.5,北東,16,96.8,0,0,0,0.5
198,2022-04-25T03:17:00,0.2,静穏,0.5,北東,15.9,96.7,0,0,0,0.5
199,2022-04-25T03:18:00,0.3,東,0.5,北東,15.9,96.7,0,0,0,0.5
200,2022-04-25T03:19:00,0.3,東,0.5,北東,16,96.8,0,0,0,0.5
201,2022-04-25T03:20:00,0.2,静穏,0.5,北東,16.3,97.2,0,0,0,0.5
202,2022-04-25T03:21:00,0.2,静穏,0.5,北東,16,96.9,0,0,0,0.5
203,2022-04-25T03:22:00,0.2,静穏,0.7,南,15.9,96.6,0,0,0,0.5
204,2022-04-25T03:23:00,0.2,静穏,0.7,南,15.9,96.6,0,0,0,0.5
205,2022-04-25T03:24:00,0.2,静穏,0.7,南,15.9,96.6,0,0,0,0.5
206,2022-04-25T03:25:00,0.2,静穏,0.7,南,15.9,96.7,0,0,0,0.5
207,2022-04-25T03:26:00,0.2,静穏,0.7,南,15.8,96.7,0,0,0,0.5
208,2022-04-25T03:27:00,0.2,静穏,0.7,南,15.8,96.7,0,0,0,0.5
209,2022-04-25T03:28:00,0.2,静穏,0.7,南,15.8,96.6,0,0,0,0.5
210,2022-04-25T03:29:00,0.2,静穏,0.7,南,15.8,96.7,0,0,0,0.5
211,2022-04-25T03:30:00,0.2,静穏,0.7,南,15.8,96.7,0,0,0,0.5
212,2022-04-25T03:31:00,0.2,静穏,0.7,南,15.8,96.7,0,0,0,0.5
213,2022-04-25T03:32:00,0.2,静穏,0.7,東南東,15.8,96.8,0,0,0,0.5
214,2022-04-25T03:33:00,0.2,静穏,0.7,東南東,15.8,96.8,0,0,0,0.5
215,2022-04-25T03:34:00,0.3,南南東,0.7,東南東,15.8,96.8,0,0,0,0.5
216,2022-04-25T03:35:00,0.3,南東,0.8,東南東,15.9,97,0,0,0,0.5
217,2022-04-25T03:36:00,0.3,南東,0.8,東南東,15.9,97,0,0,0,0.5
218,2022-04-25T03:37:00,0.4,東南東,0.8,東南東,15.8,96.8,0,0,0,0.5
219,2022-04-25T03:38:00,0.4,東南東,0.8,東南東,15.8,96.7,0,0,0,0.5
220,2022-04-25T03:39:00,0.4,東南東,0.8,東南東,15.8,96.8,0,0,0,0.5
221,2022-04-25T03:40:00,0.4,東南東,0.8,東南東,15.8,96.8,0,0,0,0.5
222,2022-04-25T03:41:00,0.4,東南東,0.8,東南東,15.8,96.9,0,0,0,0.5
223,2022-04-25T03:42:00,0.3,東,0.8,東南東,16,96.9,0,0,0,0.5
224,2022-04-25T03:43:00,0.3,東,0.8,東南東,16,97.1,0,0,0,0.5
225,2022-04-25T03:44:00,0.3,東,0.8,東南東,15.8,96.8,0,0,0,0.5
226,2022-04-25T03:45:00,0.2,静穏,0.8,東,15.8,96.7,0,0,0,0.5
227,2022-04-25T03:46:00,0.2,静穏,0.5,南東,15.8,96.7,0,0,0,0.5
228,2022-04-25T03:47:00,0.1,静穏,0.5,南東,15.7,96.7,0,0,0,0.5
229,2022-04-25T03:48:00,0.1,静穏,0.5,南東,15.7,96.7,0,0,0,0.5
230,2022-04-25T03:49:00,0.1,静穏,0.4,北東,15.8,96.7,0,0,0,0.5
231,2022-04-25T03:50:00,0.1,静穏,0.4,北東,16,97.1,0,0,0,0.5
232,2022-04-25T03:51:00,0.1,静穏,0.4,北東,15.9,96.9,0,0,0,0.5
233,2022-04-25T03:52:00,0.1,静穏,0.4,北東,15.7,96.7,0,0,0,0.5
234,2022-04-25T03:53:00,0.1,静穏,0.4,北東,15.7,96.7,0,0,0,0.5
235,2022-04-25T03:54:00,0.1,静穏,0.4,北東,15.6,96.7,0,0,0,0.5
236,2022-04-25T03:55:00,0.1,静穏,0.4,北東,15.6,96.6,0,0,0,0.5
237,2022-04-25T03:56:00,0.2,静穏,0.4,北東,15.6,96.6,0,0,0,0.5
238,2022-04-25T03:57:00,0.2,静穏,0.4,北東,15.5,96.7,0,0,0,0.5
239,2022-04-25T03:58:00,0.2,静穏,0.4,北東,15.6,96.7,0,0,0,0.5
240,2022-04-25T03:59:00,0.2,静穏,0.6,北,15.6,96.8,0,0,0,0.5
241,2022-04-25T04:00:00,0.3,北,0.6,北,15.6,96.9,0,0,0,0.5
242,2022-04-25T04:01:00,0.3,北,0.9,北東,15.6,96.8,0,0,0,0.5
243,2022-04-25T04:02:00,0.4,北,0.9,北東,15.6,96.9,0,0,0,0.5
244,2022-04-25T04:03:00,0.4,北北東,0.9,北東,15.6,96.9,0,0,0,0.5
245,2022-04-25T04:04:00,0.4,北北東,0.9,北東,15.6,96.9,0,0,0,0.5
246,2022-04-25T04:05:00,0.4,北東,1,南南東,15.6,96.9,0,0,0,0.5
247,2022-04-25T04:06:00,0.5,東北東,1,南南東,15.9,97.1,0,0,0,0.5
248,2022-04-25T04:07:00,0.5,東北東,1,南南東,15.9,97.3,0,0,0,0.5
249,2022-04-25T04:08:00,0.5,東,1,南南東,15.8,96.9,0,0,0,0.5
250,2022-04-25T04:09:00,0.6,東南東,1.3,南東,15.7,96.8,0,0,0,0.5
251,2022-04-25T04:10:00,0.7,東南東,1.5,南東,15.7,96.8,0,0,0,0.5
252,2022-04-25T04:11:00,0.7,南東,1.5,南東,15.7,96.8,0,0,0,0.5
253,2022-04-25T04:12:00,0.8,南東,1.6,南東,15.7,96.8,0,0,0,0.5
254,2022-04-25T04:13:00,0.8,南東,1.6,南東,15.7,96.9,0,0,0,0.5
255,2022-04-25T04:14:00,0.9,南東,1.6,南東,15.7,96.9,0,0,0,0.5
256,2022-04-25T04:15:00,0.9,南東,1.6,南東,15.7,96.9,0,0,0,0.5
257,2022-04-25T04:16:00,1,東南東,1.6,南東,15.6,96.9,0,0,0,0.5
258,2022-04-25T04:17:00,1,東南東,1.6,南東,15.6,96.9,0,0,0,0.5
259,2022-04-25T04:18:00,1,東南東,1.6,南東,15.6,96.9,0,0,0,0.5
260,2022-04-25T04:19:00,1,東,1.6,南東,15.6,96.9,0,0,0,0.5
261,2022-04-25T04:20:00,1,東,1.6,南東,15.5,96.8,0,0,0,0.5
262,2022-04-25T04:21:00,1,東,1.6,南東,15.5,96.9,0,0,0,0.5
263,2022-04-25T04:22:00,0.9,東北東,1.5,東南東,15.5,96.8,0,0,0,0.5
264,2022-04-25T04:23:00,0.9,東北東,1.4,北東,15.5,96.8,0,0,0,0.5
265,2022-04-25T04:24:00,0.9,東北東,1.4,北東,15.4,96.8,0,0,0,0.5
266,2022-04-25T04:25:00,0.9,東北東,1.4,北東,15.4,96.9,0,0,0,0.5
267,2022-04-25T04:26:00,0.9,東北東,1.4,北東,15.4,96.9,0,0,0,0.5
268,2022-04-25T04:27:00,1,東北東,1.5,北東,15.4,96.9,0,0,0,0.5
269,2022-04-25T04:28:00,0.9,東北東,1.5,北東,15.4,96.9,0,0,0,0.5
270,2022-04-25T04:29:00,0.9,北東,1.5,北東,15.4,97,0,0,0,0.5
271,2022-04-25T04:30:00,0.9,北東,1.5,北東,15.5,97.1,0,0,0,0.5
272,2022-04-25T04:31:00,0.9,北東,1.5,北東,15.4,97,0,0,0,0.5
273,2022-04-25T04:32:00,0.9,北東,1.5,北東,15.4,96.9,0,0,0,0.5
274,2022-04-25T04:33:00,0.8,北東,1.5,北東,15.3,96.9,0,0,0,0.5
275,2022-04-25T04:34:00,0.9,北東,1.5,北東,15.3,96.9,0,0,0,0.5
276,2022-04-25T04:35:00,0.9,北東,1.5,北東,15.3,96.9,0,0,0,0.5
277,2022-04-25T04:36:00,0.9,北東,1.5,北東,15.3,96.9,0,0,0,0.5
278,2022-04-25T04:37:00,0.8,北東,1.4,北東,15.3,97,0,0,0,0.5
279,2022-04-25T04:38:00,0.8,北東,1.4,北東,15.3,97.1,0,0,0,0.5
280,2022-04-25T04:39:00,0.8,東北東,1.4,北東,15.3,97.1,0,0,0,0.5
281,2022-04-25T04:40:00,0.9,東北東,1.4,北東,15.3,97.1,0,0,0,0.5
282,2022-04-25T04:41:00,0.9,東北東,1.4,北東,15.4,97.1,0,0,0,0.5
283,2022-04-25T04:42:00,0.9,東,1.4,北東,15.3,97.1,0,0,0,0.5
284,2022-04-25T04:43:00,0.9,東,1.5,東南東,15.4,97.1,0,0,0,0.5
285,2022-04-25T04:44:00,0.9,東,1.5,東南東,15.3,97.1,0,0,0,0.5
286,2022-04-25T04:45:00,0.9,東,1.5,東南東,15.3,97.1,0,0,0,0.5
287,2022-04-25T04:46:00,1,東,1.5,東南東,15.3,97.1,0,0,0,0.5
288,2022-04-25T04:47:00,1,東南東,1.5,東南東,15.4,97.2,0,0,0,0.5
289,2022-04-25T04:48:00,1,東南東,1.5,東南東,15.3,97.2,0,0,0,0.5
290,2022-04-25T04:49:00,1.1,東南東,1.5,東南東,15.4,97.1,0,0,0,0.5
291,2022-04-25T04:50:00,1.1,東南東,1.5,東南東,15.3,97.1,0,0,0,0.5
292,2022-04-25T04:51:00,1.1,東南東,1.5,東南東,15.3,97.1,0,0,0,0.5
293,2022-04-25T04:52:00,1.1,東南東,1.5,東南東,15.3,97.1,0,0,0,0.5
294,2022-04-25T04:53:00,1.1,東南東,1.4,東南東,15.3,97.1,0,0,0,0.5
295,2022-04-25T04:54:00,1.1,東南東,1.5,東,15.3,97.2,0,0,0,0.5
296,2022-04-25T04:55:00,1.1,東南東,1.5,東,15.3,97.2,0,0,0,0.5
297,2022-04-25T04:56:00,1.1,東南東,1.6,東南東,15.3,97.2,0,0,0,0.5
298,2022-04-25T04:57:00,1.1,東南東,1.6,東南東,15.3,97.2,0,0,0,0.5
299,2022-04-25T04:58:00,1.1,東南東,1.6,東南東,15.3,97.2,0,0,0,0.5
300,2022-04-25T04:59:00,1.1,東南東,1.6,東南東,15.4,97.2,0,0,0,0.5
301,2022-04-25T05:00:00,1.1,東,1.6,東南東,15.3,97.2,0,0,0,0.5
302,2022-04-25T05:01:00,1.1,東,1.6,東南東,15.4,97.2,0,0,0,0.5
303,2022-04-25T05:02:00,1.1,東,1.6,東南東,15.3,97.2,0,0,0,0.5
304,2022-04-25T05:03:00,1.1,東,1.6,東南東,15.3,97.1,0,0,0,0.5
305,2022-04-25T05:04:00,1,東,1.6,東南東,15.3,97.1,0,0,0,0.5
306,2022-04-25T05:05:00,1,東,1.6,東南東,15.2,97,0,0,0,0.5
307,2022-04-25T05:06:00,1,東,1.6,東北東,15.2,97,0,0,0,0.5
308,2022-04-25T05:07:00,1,東北東,1.6,東北東,15.2,97,0,0,0,0.5
309,2022-04-25T05:08:00,1.1,東北東,1.6,東北東,15.1,96.9,0,0,0,0.5
310,2022-04-25T05:09:00,1.1,東北東,1.6,東北東,15.1,97,0,0,0,0.5
311,2022-04-25T05:10:00,1.1,東北東,1.6,東北東,15.1,97,0,0,0,0.5
312,2022-04-25T05:11:00,1.1,東北東,1.6,東北東,15.1,97.1,0,0,0,0.5
313,2022-04-25T05:12:00,1.1,東北東,1.6,東北東,15.1,97.1,0,0,0,0.5
314,2022-04-25T05:13:00,1.1,東北東,1.6,東北東,15.1,97.1,0,0,0,0.5
315,2022-04-25T05:14:00,1.1,東北東,1.6,東北東,15.2,97.2,0,0,0,0.5
316,2022-04-25T05:15:00,1.1,東北東,1.6,東北東,15.2,97.2,0,0,0,0.5
317,2022-04-25T05:16:00,1.1,東北東,1.6,東北東,15.1,97.2,0,0,0,0.5
318,2022-04-25T05:17:00,1,東北東,1.6,東北東,15.2,97.2,0,0,0,0.5
319,2022-04-25T05:18:00,0.9,東北東,1.6,東北東,15.1,97.2,0,0,0,0.5
320,2022-04-25T05:19:00,1,東北東,1.6,東北東,15.1,97.2,0,0,0,0.5
321,2022-04-25T05:20:00,1,東北東,1.6,東北東,15.1,97.1,0,0,0,0.5
322,2022-04-25T05:21:00,0.9,東北東,1.6,東北東,15.1,97.1,0,0,0,0.5
323,2022-04-25T05:22:00,1,東北東,1.6,東北東,15.1,97.1,0,0,0,0.5
324,2022-04-25T05:23:00,1,東北東,1.6,東北東,15.1,97.1,0,0,0,0.5
325,2022-04-25T05:24:00,1,東北東,1.6,東北東,15.1,97.1,0,0,0,0.5
326,2022-04-25T05:25:00,0.9,東,1.6,東北東,15.1,97.1,0,0,0,0.5
327,2022-04-25T05:26:00,0.9,東,1.6,東北東,15.1,97.2,0,0,0,0.5
328,2022-04-25T05:27:00,1,東,1.6,東北東,15.1,97.2,0,0,0,0.5
329,2022-04-25T05:28:00,1,東,1.6,東北東,15.1,97.2,0,0,0,0.5
330,2022-04-25T05:29:00,1,東,1.5,東北東,15.1,97.2,0,0,0,0.5
331,2022-04-25T05:30:00,0.9,東,1.5,東北東,15.1,97.2,0,0,0,0.5
332,2022-04-25T05:31:00,0.9,東,1.5,東北東,15.1,97.2,0,0,0,0.5
333,2022-04-25T05:32:00,0.9,東,1.4,東南東,15.1,97.2,0,0,0,0.5
334,2022-04-25T05:33:00,0.9,東,1.4,東南東,15.1,97.2,0,0,0,0.5
335,2022-04-25T05:34:00,0.8,東,1.4,東南東,15.1,97.2,0,0,0,0.5
336,2022-04-25T05:35:00,0.8,東,1.4,東南東,15.1,97.2,0,0,0,0.5
337,2022-04-25T05:36:00,0.8,東,1.4,東南東,15.4,97.4,0,0,0,0.5
338,2022-04-25T05:37:00,0.7,東,1.4,東南東,15.2,97.3,0,0,0,0.5
339,2022-04-25T05:38:00,0.7,東,1.4,東南東,15.1,97.1,0,0,0,0.5
340,2022-04-25T05:39:00,0.7,東,1.4,東南東,15.1,97.1,0,0,0,0.5
341,2022-04-25T05:40:00,0.6,東,1.3,東北東,15.1,97.1,0,0,0,0.5
342,2022-04-25T05:41:00,0.6,東,1.3,東北東,15.1,97.1,0,0,0,0.5
343,2022-04-25T05:42:00,0.6,東,1.3,東北東,15.1,97.1,0,0,0,0.5
344,2022-04-25T05:43:00,0.6,東,1.1,東北東,15.2,97.2,0,0,0,0.5
345,2022-04-25T05:44:00,0.6,東,1.1,東北東,15.3,97.3,0,0,0,0.5
346,2022-04-25T05:45:00,0.7,東南東,1.1,東北東,15.3,97.3,0,0,0,0.5
347,2022-04-25T05:46:00,0.7,東南東,1.1,東北東,15.2,97.2,0,0,0,0.5
348,2022-04-25T05:47:00,0.7,東南東,1.2,南東,15.1,97,0,0,0,0.5
349,2022-04-25T05:48:00,0.7,東南東,1.3,南東,15.2,97.1,0,0,0,0.5
350,2022-04-25T05:49:00,0.8,南東,1.4,東南東,15.1,97.1,0,0,0,0.5
351,2022-04-25T05:50:00,0.8,南東,1.4,東南東,15.1,97,0,0,0,0.5
352,2022-04-25T05:51:00,0.8,南東,1.4,東南東,15.2,97.1,0,0,0,0.5
353,2022-04-25T05:52:00,0.7,南東,1.4,東南東,15.4,97.3,0,0,0,0.5
354,2022-04-25T05:53:00,0.8,南東,1.4,東南東,15.3,97.3,0,0,0,0.5
355,2022-04-25T05:54:00,0.8,南東,1.4,東南東,15.2,97,0,0,0,0.5
356,2022-04-25T05:55:00,0.7,南東,1.4,東南東,15.2,97,0,0,0,0.5
357,2022-04-25T05:56:00,0.7,南東,1.4,東南東,15.2,97,0,0,0,0.5
358,2022-04-25T05:57:00,0.7,東南東,1.4,東南東,15.2,97,0,0,0,0.5
359,2022-04-25T05:58:00,0.7,東南東,1.4,東南東,15.2,97,0,0,0,0.5
360,2022-04-25T05:59:00,0.7,東南東,1.2,東南東,15.3,97,0,0,0,0.5
361,2022-04-25T06:00:00,0.7,東南東,1.2,東南東,15.3,97.1,0,0,0,0.5
362,2022-04-25T06:01:00,0.7,東南東,1.2,東南東,15.3,97.1,0,0,0,0.5
363,2022-04-25T06:02:00,0.8,東南東,1.2,東南東,15.2,96.9,0,0,0,0.5
364,2022-04-25T06:03:00,0.8,東南東,1.2,東南東,15.1,96.9,0,0,0,0.5
365,2022-04-25T06:04:00,0.8,東南東,1.2,東南東,15.1,96.7,0,0,0,0.5
366,2022-04-25T06:05:00,0.8,東南東,1.2,東南東,15.1,96.7,0,0,0,0.5
367,2022-04-25T06:06:00,0.9,東南東,1.2,東南東,15.1,96.8,0,0,0,0.5
368,2022-04-25T06:07:00,0.9,東南東,1.2,東南東,15.2,96.8,0,0,0,0.5
369,2022-04-25T06:08:00,0.9,東南東,1.2,東南東,15.3,96.9,0,0,0,0.5
370,2022-04-25T06:09:00,0.9,東南東,1.2,東南東,15.4,97.1,0,0,0,0.5
371,2022-04-25T06:10:00,0.9,東南東,1.2,東南東,15.3,97,0,0,0,0.5
372,2022-04-25T06:11:00,0.9,東南東,1.2,東南東,15.3,96.9,0,0,0,0.5
373,2022-04-25T06:12:00,0.9,東南東,1.2,東南東,15.3,96.9,0,0,0,0.5
374,2022-04-25T06:13:00,0.8,東南東,1.2,南東,15.4,96.9,0,0,0,0.5
375,2022-04-25T06:14:00,0.7,東南東,1.2,南東,15.4,96.9,0,0,0,0.5
376,2022-04-25T06:15:00,0.7,東南東,1.2,南東,15.5,96.9,0,0,0,0.5
377,2022-04-25T06:16:00,0.7,東南東,1.2,南東,15.5,96.9,0,0,0,0.5
378,2022-04-25T06:17:00,0.6,東南東,1.2,南東,15.8,97.1,0,0,0,0.5
379,2022-04-25T06:18:00,0.6,東南東,1.2,南東,15.7,96.9,0,0,0,0.5
380,2022-04-25T06:19:00,0.6,東南東,1.2,南東,15.5,96.6,0,0,0,0.5
381,2022-04-25T06:20:00,0.6,東南東,1,東南東,15.5,96.5,0,0,0,0.5
382,2022-04-25T06:21:00,0.5,東南東,0.9,東南東,15.5,96.5,0,0,0,0.5
383,2022-04-25T06:22:00,0.5,東南東,0.9,東南東,15.5,96.5,0,0,0,0.5
384,2022-04-25T06:23:00,0.5,東南東,0.9,東南東,15.6,96.6,0,0,0,0.5
385,2022-04-25T06:24:00,0.6,東南東,0.9,東南東,15.5,96.4,0,0,0,0.5
386,2022-04-25T06:25:00,0.5,東南東,0.9,東南東,15.8,96.6,0,0,0,0.5
387,2022-04-25T06:26:00,0.5,東南東,0.9,東南東,15.9,96.9,0,0,0,0.5
388,2022-04-25T06:27:00,0.5,東南東,0.9,東南東,15.8,96.5,0,0,0,0.5
389,2022-04-25T06:28:00,0.4,東南東,0.9,東南東,15.9,96.5,0,0,0,0.5
390,2022-04-25T06:29:00,0.4,東南東,0.8,東,15.8,96.4,0,0,0,0.5
391,2022-04-25T06:30:00,0.4,東南東,0.8,東,15.8,96.2,0,0,0,0.5
392,2022-04-25T06:31:00,0.4,南東,0.8,東,15.8,96.2,0,0,0,0.5
393,2022-04-25T06:32:00,0.3,南東,0.7,南,15.8,96,0,0,0,0.5
394,2022-04-25T06:33:00,0.4,南東,0.9,南,16,96.3,0,0,0,0.5
395,2022-04-25T06:34:00,0.4,南南東,1,南南東,16.1,96.4,0,0,0,0.5
396,2022-04-25T06:35:00,0.4,南南東,1,南南東,16.1,96.1,0,0,0,0.5
397,2022-04-25T06:36:00,0.5,南南東,1.1,南南東,16,96,0,0,0,0.5
398,2022-04-25T06:37:00,0.5,南南東,1.1,南南東,16.1,96,0,0,0,0.5
399,2022-04-25T06:38:00,0.5,南南東,1.1,南南東,16.1,95.8,0,0,0,0.5
400,2022-04-25T06:39:00,0.5,南南東,1.1,南南東,16.1,95.8,0,0,0,0.5
401,2022-04-25T06:40:00,0.5,南南東,1.1,南南東,15.9,95.4,0,0,0,0.5
402,2022-04-25T06:41:00,0.5,南,1.1,南南東,15.7,95.2,0,0,0,0.5
403,2022-04-25T06:42:00,0.5,南,1.1,南南東,15.7,95.3,0,0,0,0.5
404,2022-04-25T06:43:00,0.4,南,1.1,南南東,15.7,95.3,0,0,0,0.5
405,2022-04-25T06:44:00,0.4,南南西,1.1,南南東,15.7,95.4,0,0,0,0.5
406,2022-04-25T06:45:00,0.4,南南西,1.1,南南東,15.8,95.6,0,0,0,0.5
407,2022-04-25T06:46:00,0.4,南西,1.1,西南西,15.8,95.6,0,0,0,0.5
408,2022-04-25T06:47:00,0.4,西南西,1.1,西南西,15.7,95.3,0,0,0,0.5
409,2022-04-25T06:48:00,0.5,西,1.1,西南西,15.7,95.5,0,0,0,0.5
410,2022-04-25T06:49:00,0.5,西北西,1.1,西南西,15.7,95.4,0,0,0,0.5
411,2022-04-25T06:50:00,0.6,西北西,1.1,西南西,15.6,95.3,0,0,0,0.5
412,2022-04-25T06:51:00,0.6,西北西,1.1,西南西,15.6,95.3,0,0,0,0.5